Location: Unnamed Road
(35.9029°N, 51.9749°E)
Time: 12:31:56
(UTC+04:30)

Courier 1B - All Passes

Search period start: 26 May 2020 00:00
Search period end: 05 June 2020 00:00
Orbit: 963 x 1209 km, 28.3° (Epoch: 25 May)

Date Brightness Start Highest point End Pass type
(mag) Time Alt. Az. Time Alt. Az. Time Alt. Az.
26 May - 00:03:31 10° S 00:06:18 12° SSE 00:09:08 10° SE night (unlit)
26 May - 01:53:04 10° SW 01:59:42 31° SSE 02:06:21 10° ESE visible
26 May - 03:46:03 10° WSW 03:53:30 47° S 04:00:49 10° ESE visible
26 May - 05:40:06 10° WSW 05:47:25 45° S 05:54:28 10° ESE daylight
26 May - 07:34:58 10° WSW 07:41:02 26° SSW 07:46:51 10° SSE daylight
27 May - 00:59:51 10° SSW 01:05:56 26° SSE 01:12:06 10° ESE visible
27 May - 02:52:18 10° WSW 02:59:37 44° S 03:06:56 10° E visible
27 May - 04:46:07 10° WSW 04:53:35 48° S 05:00:50 10° ESE visible
27 May - 06:40:41 10° WSW 06:47:20 32° SSW 06:53:43 10° SE daylight
27 May - 08:37:46 10° SW 08:40:36 12° SSW 08:43:23 10° S daylight
28 May - 00:06:56 10° SSW 00:12:13 20° SSE 00:17:36 10° ESE night (unlit)
28 May - 01:58:40 10° SW 02:05:47 40° SSE 02:12:57 10° E visible
28 May - 03:52:12 10° WSW 03:59:42 49° S 04:07:06 10° ESE visible
28 May - 05:46:31 10° W 05:53:33 37° SSW 06:00:23 10° SE daylight
28 May - 07:42:19 10° WSW 07:46:59 17° SSW 07:51:32 10° S daylight
28 May - 23:14:30 10° S 23:18:33 15° SSE 23:22:40 10° ESE night (unlit)
29 May - 01:05:11 10° SW 01:11:57 35° SSE 01:18:53 10° E visible
29 May - 02:58:22 10° WSW 03:05:48 49° S 03:13:16 10° ESE visible
29 May - 04:52:27 10° W 04:59:44 42° SSW 05:06:52 10° SE visible
29 May - 06:47:36 10° WSW 06:53:19 23° SSW 06:58:54 10° SSE daylight
29 May - 22:23:34 10° SSE 22:24:56 11° SSE 22:26:17 10° SE night (unlit)
30 May - 00:11:53 10° SW 00:18:11 29° SSE 00:24:41 10° ESE visible
30 May - 02:04:37 10° WSW 02:11:55 47° S 02:19:21 10° ESE visible
30 May - 03:58:29 10° WSW 04:05:53 46° S 04:13:13 10° ESE visible
30 May - 05:53:11 10° WSW 05:59:36 28° SSW 06:05:52 10° SSE daylight
30 May - 23:18:50 10° SSW 23:24:28 24° SSE 23:30:19 10° ESE night (unlit)
31 May - 01:10:59 10° WSW 01:18:04 43° S 01:25:22 10° E visible
31 May - 03:04:35 10° WSW 03:12:00 48° S 03:19:27 10° ESE visible
31 May - 04:58:58 10° W 05:05:50 34° SSW 05:12:35 10° SE visible
31 May - 06:55:27 10° WSW 06:59:14 14° SSW 07:02:58 10° S daylight
31 May - 22:26:07 10° SSW 22:30:49 18° SSE 22:35:40 10° ESE visible
01 Jun - 00:17:29 10° SW 00:24:15 38° SSE 00:31:18 10° E visible
01 Jun - 02:10:47 10° WSW 02:18:06 49° S 02:25:36 10° ESE visible
01 Jun - 04:04:55 10° W 04:12:00 39° SSW 04:19:07 10° SE visible
01 Jun - 06:00:23 10° WSW 06:05:34 19° SSW 06:10:40 10° SSE daylight
01 Jun - 21:34:05 10° S 21:37:14 13° SSE 21:40:27 10° ESE visible
01 Jun - 23:24:07 10° SW 23:30:30 33° SSE 23:37:09 10° E visible
02 Jun - 01:17:03 10° WSW 01:24:14 48° S 01:31:40 10° ESE visible
02 Jun - 03:10:57 10° W 03:18:10 43° S 03:25:28 10° ESE visible
02 Jun - 05:05:50 10° WSW 05:11:50 24° SSW 05:17:49 10° SSE visible
02 Jun - 22:30:58 10° SSW 22:36:47 27° SSE 22:42:53 10° ESE visible
03 Jun - 00:23:26 10° WSW 00:30:23 45° S 00:37:41 10° ESE visible
03 Jun - 02:17:05 10° WSW 02:24:18 46° S 02:31:43 10° ESE visible
03 Jun - 04:11:34 10° WSW 04:18:05 29° SSW 04:24:37 10° SE visible
03 Jun - 06:09:25 10° SW 06:11:28 11° SSW 06:13:31 10° SSW daylight
03 Jun - 21:38:05 10° SSW 21:43:09 21° SSE 21:48:26 10° ESE visible
03 Jun - 23:29:55 10° SW 23:36:36 41° SSE 23:43:39 10° E visible
04 Jun - 01:23:19 10° WSW 01:30:26 48° S 01:37:51 10° ESE visible
04 Jun - 03:17:29 10° W 03:24:17 35° SSW 03:31:12 10° SE visible
04 Jun - 05:13:30 10° WSW 05:17:47 16° SSW 05:22:04 10° S visible
04 Jun - 20:45:37 10° S 20:49:35 16° SSE 20:53:40 10° ESE visible
04 Jun - 22:36:32 10° SW 22:42:52 36° SSE 22:49:32 10° E visible
